Time,TemperatureF,DewpointF,PressureIn,WindDirection,WindDirectionDegrees,WindSpeedMPH,WindSpeedGustMPH,Humidity,HourlyPrecipIn,Conditions,Clouds,dailyrainin,SoftwareType,DateUTC
2013-06-13 00:01:00,66.0,65.0,29.65,East,98,0.0,9.0,95,0.01,,,0.07,,2013-06-13 04:01:00,
2013-06-13 00:12:00,66.0,65.0,29.65,East,98,0.0,9.0,95,0.01,,,0.07,,2013-06-13 04:12:00,
2013-06-13 00:22:00,66.0,65.0,29.65,NE,54,2.0,3.0,95,0.00,,,0.07,,2013-06-13 04:22:00,
2013-06-13 00:32:00,65.0,64.0,29.65,NE,45,0.0,2.0,95,0.00,,,0.07,,2013-06-13 04:32:00,
2013-06-13 00:43:00,65.0,63.0,29.64,East,101,0.0,0.0,94,0.01,,,0.08,,2013-06-13 04:43:00,
2013-06-13 00:53:00,65.0,63.0,29.64,East,101,0.0,0.0,94,0.01,,,0.08,,2013-06-13 04:53:00,
2013-06-13 01:02:00,65.0,64.0,29.65,East,101,0.0,0.0,95,0.01,,,0.08,,2013-06-13 05:02:00,
2013-06-13 01:12:00,65.0,64.0,29.65,East,101,0.0,0.0,95,0.02,,,0.09,,2013-06-13 05:12:00,
2013-06-13 01:24:00,65.0,64.0,29.65,East,101,0.0,0.0,95,0.02,,,0.09,,2013-06-13 05:24:00,
2013-06-13 01:33:00,65.0,64.0,29.65,East,101,0.0,0.0,95,0.02,,,0.09,,2013-06-13 05:33:00,
2013-06-13 01:43:00,65.0,64.0,29.64,East,101,0.0,0.0,95,0.08,,,0.15,,2013-06-13 05:43:00,
2013-06-13 01:53:00,65.0,64.0,29.64,East,101,0.0,0.0,95,0.08,,,0.15,,2013-06-13 05:53:00,
2013-06-13 02:02:00,64.0,63.0,29.62,East,101,0.0,2.0,95,0.09,,,0.19,,2013-06-13 06:02:00,
2013-06-13 02:11:00,64.0,63.0,29.62,East,101,0.0,2.0,95,0.09,,,0.20,,2013-06-13 06:11:00,
2013-06-13 02:22:00,64.0,63.0,29.62,East,101,0.0,2.0,95,0.09,,,0.20,,2013-06-13 06:22:00,
2013-06-13 02:33:00,64.0,63.0,29.62,East,101,0.0,2.0,95,0.09,,,0.20,,2013-06-13 06:33:00,
2013-06-13 02:44:00,63.0,62.0,29.63,East,101,0.0,0.0,95,0.04,,,0.21,,2013-06-13 06:44:00,
2013-06-13 02:52:00,63.0,62.0,29.63,East,101,0.0,0.0,95,0.03,,,0.21,,2013-06-13 06:52:00,
2013-06-13 03:01:00,63.0,62.0,29.62,East,101,0.0,0.0,95,0.02,,,0.21,,2013-06-13 07:01:00,
2013-06-13 03:12:00,63.0,62.0,29.63,East,101,0.0,0.0,95,0.01,,,0.21,,2013-06-13 07:12:00,
2013-06-13 03:22:00,63.0,62.0,29.63,East,101,0.0,0.0,95,0.00,,,0.21,,2013-06-13 07:22:00,
2013-06-13 03:33:00,63.0,62.0,29.63,East,101,0.0,0.0,95,0.00,,,0.21,,2013-06-13 07:33:00,
2013-06-13 03:42:00,63.0,62.0,29.63,East,101,0.0,0.0,95,0.00,,,0.21,,2013-06-13 07:42:00,
2013-06-13 03:52:00,62.0,61.0,29.64,ENE,65,0.0,0.0,95,0.01,,,0.22,,2013-06-13 07:52:00,
2013-06-13 04:01:00,62.0,61.0,29.64,ENE,65,0.0,0.0,95,0.01,,,0.22,,2013-06-13 08:01:00,
2013-06-13 04:11:00,62.0,61.0,29.63,ENE,66,0.0,1.0,95,0.01,,,0.22,,2013-06-13 08:11:00,
2013-06-13 04:22:00,62.0,61.0,29.63,ENE,66,0.0,1.0,95,0.01,,,0.22,,2013-06-13 08:22:00,
2013-06-13 04:32:00,62.0,61.0,29.63,ENE,66,0.0,1.0,95,0.01,,,0.22,,2013-06-13 08:32:00,
2013-06-13 04:43:00,61.0,60.0,29.62,North,5,0.0,0.0,95,0.00,,,0.22,,2013-06-13 08:43:00,
2013-06-13 04:52:00,61.0,60.0,29.62,North,5,0.0,0.0,95,0.00,,,0.22,,2013-06-13 08:52:00,
2013-06-13 05:02:00,61.0,60.0,29.62,North,5,0.0,0.0,95,0.00,,,0.22,,2013-06-13 09:02:00,
2013-06-13 05:12:00,61.0,60.0,29.62,North,5,0.0,0.0,96,0.00,,,0.22,,2013-06-13 09:12:00,
2013-06-13 05:22:00,61.0,60.0,29.62,NE,52,0.0,1.0,95,0.00,,,0.22,,2013-06-13 09:22:00,
2013-06-13 05:32:00,61.0,60.0,29.62,NE,52,0.0,1.0,95,0.00,,,0.22,,2013-06-13 09:32:00,
2013-06-13 05:42:00,61.0,60.0,29.63,NE,40,0.0,3.0,95,0.00,,,0.22,,2013-06-13 09:42:00,
2013-06-13 05:52:00,61.0,60.0,29.63,NE,40,0.0,3.0,95,0.00,,,0.22,,2013-06-13 09:52:00,
2013-06-13 06:01:00,61.0,60.0,29.64,SSE,155,0.0,0.0,96,0.00,,,0.22,,2013-06-13 10:01:00,
2013-06-13 06:12:00,61.0,60.0,29.64,SSE,155,0.0,0.0,96,0.00,,,0.22,,2013-06-13 10:12:00,
2013-06-13 06:22:00,60.0,59.0,29.65,SSE,155,0.0,0.0,95,0.00,,,0.22,,2013-06-13 10:22:00,
2013-06-13 06:33:00,60.0,59.0,29.65,SSE,155,0.0,0.0,95,0.00,,,0.22,,2013-06-13 10:33:00,
2013-06-13 06:43:00,60.0,59.0,29.65,SSE,155,0.0,0.0,95,0.00,,,0.22,,2013-06-13 10:43:00,
2013-06-13 06:53:00,60.0,59.0,29.67,ESE,110,0.0,0.0,95,0.00,,,0.22,,2013-06-13 10:53:00,
2013-06-13 07:02:00,60.0,59.0,29.67,ESE,110,0.0,2.0,95,0.00,,,0.22,,2013-06-13 11:02:00,
2013-06-13 07:12:00,60.0,59.0,29.67,ESE,110,0.0,0.0,95,0.00,,,0.22,,2013-06-13 11:12:00,
2013-06-13 07:24:00,60.0,59.0,29.67,ESE,110,0.0,0.0,95,0.00,,,0.22,,2013-06-13 11:24:00,
2013-06-13 07:32:00,60.0,59.0,29.67,ESE,110,0.0,0.0,95,0.00,,,0.22,,2013-06-13 11:32:00,
2013-06-13 07:42:00,60.0,59.0,29.67,ESE,110,0.0,0.0,95,0.00,,,0.22,,2013-06-13 11:42:00,
2013-06-13 07:52:00,60.0,59.0,29.67,ESE,110,0.0,0.0,95,0.00,,,0.22,,2013-06-13 11:52:00,
2013-06-13 08:01:00,60.0,58.0,29.67,NNE,12,0.0,0.0,94,0.00,,,0.22,,2013-06-13 12:01:00,
2013-06-13 08:12:00,60.0,58.0,29.67,NNE,24,0.0,2.0,94,0.00,,,0.22,,2013-06-13 12:12:00,
2013-06-13 08:22:00,60.0,58.0,29.67,NNE,24,0.0,2.0,94,0.00,,,0.22,,2013-06-13 12:22:00,
2013-06-13 08:35:00,62.0,59.0,29.68,NNE,22,0.0,0.0,91,0.00,,,0.22,,2013-06-13 12:35:00,
2013-06-13 08:43:00,63.0,59.0,29.69,ENE,59,0.0,3.0,88,0.00,,,0.22,,2013-06-13 12:43:00,
2013-06-13 08:52:00,63.0,59.0,29.69,ENE,59,0.0,3.0,88,0.00,,,0.22,,2013-06-13 12:52:00,
2013-06-13 09:01:00,65.0,60.0,29.69,SE,133,2.0,3.0,85,0.00,,,0.22,,2013-06-13 13:01:00,
2013-06-13 09:11:00,65.0,60.0,29.69,SE,133,2.0,3.0,85,0.00,,,0.22,,2013-06-13 13:11:00,
2013-06-13 09:22:00,66.0,60.0,29.69,SE,138,0.0,2.0,81,0.00,,,0.22,,2013-06-13 13:22:00,
2013-06-13 09:33:00,66.0,60.0,29.69,SE,138,0.0,2.0,81,0.00,,,0.22,,2013-06-13 13:33:00,
2013-06-13 09:43:00,66.0,60.0,29.69,SE,138,0.0,2.0,81,0.00,,,0.22,,2013-06-13 13:43:00,
2013-06-13 09:53:00,66.0,60.0,29.69,SE,138,0.0,2.0,81,0.00,,,0.22,,2013-06-13 13:53:00,
2013-06-13 10:02:00,67.0,60.0,29.70,South,185,3.0,4.0,77,0.00,,,0.22,,2013-06-13 14:02:00,
2013-06-13 10:11:00,68.0,60.0,29.70,NW,318,0.0,4.0,75,0.00,,,0.22,,2013-06-13 14:11:00,
2013-06-13 10:22:00,68.0,60.0,29.70,NE,46,0.0,1.0,75,0.00,,,0.22,,2013-06-13 14:22:00,
2013-06-13 10:33:00,70.0,60.0,29.70,North,350,0.0,5.0,71,0.00,,,0.22,,2013-06-13 14:33:00,
2013-06-13 10:43:00,71.0,60.0,29.70,SSE,157,0.0,7.0,68,0.00,,,0.22,,2013-06-13 14:43:00,
2013-06-13 10:53:00,72.0,60.0,29.70,NNE,30,2.0,7.0,66,0.00,,,0.22,,2013-06-13 14:53:00,
2013-06-13 11:02:00,72.0,60.0,29.70,North,10,0.0,11.0,65,0.00,,,0.22,,2013-06-13 15:02:00,
2013-06-13 11:12:00,73.0,61.0,29.71,NE,48,3.0,5.0,66,0.00,,,0.22,,2013-06-13 15:12:00,
2013-06-13 11:22:00,73.0,61.0,29.71,NE,48,3.0,5.0,66,0.00,,,0.22,,2013-06-13 15:22:00,
2013-06-13 11:33:00,74.0,60.0,29.71,East,99,0.0,2.0,62,0.00,,,0.22,,2013-06-13 15:33:00,
2013-06-13 11:43:00,74.0,60.0,29.71,East,99,0.0,2.0,62,0.00,,,0.22,,2013-06-13 15:43:00,
2013-06-13 11:53:00,74.0,60.0,29.72,NW,315,2.0,6.0,62,0.00,,,0.22,,2013-06-13 15:53:00,
2013-06-13 12:02:00,75.0,60.0,29.72,ENE,78,1.0,7.0,59,0.00,,,0.22,,2013-06-13 16:02:00,
2013-06-13 12:12:00,75.0,60.0,29.72,ENE,78,1.0,7.0,59,0.00,,,0.22,,2013-06-13 16:12:00,
2013-06-13 12:22:00,76.0,62.0,29.72,West,280,0.0,6.0,61,0.00,,,0.22,,2013-06-13 16:22:00,
2013-06-13 12:33:00,76.0,61.0,29.72,NNE,33,3.0,12.0,60,0.00,,,0.22,,2013-06-13 16:33:00,
2013-06-13 12:43:00,76.0,61.0,29.72,NNE,33,3.0,12.0,60,0.00,,,0.22,,2013-06-13 16:43:00,
2013-06-13 12:54:00,77.0,62.0,29.72,NNE,15,0.0,4.0,59,0.00,,,0.22,,2013-06-13 16:54:00,
2013-06-13 13:02:00,77.0,62.0,29.72,NNE,15,0.0,4.0,59,0.00,,,0.22,,2013-06-13 17:02:00,
2013-06-13 13:12:00,77.0,60.0,29.73,North,351,3.0,6.0,56,0.00,,,0.22,,2013-06-13 17:12:00,
2013-06-13 13:24:00,76.0,60.0,29.73,ENE,76,4.0,4.0,58,0.00,,,0.22,,2013-06-13 17:24:00,
2013-06-13 13:33:00,77.0,61.0,29.73,North,0,4.0,4.0,57,0.00,,,0.22,,2013-06-13 17:33:00,
2013-06-13 13:43:00,78.0,61.0,29.74,NE,44,0.0,6.0,55,0.00,,,0.22,,2013-06-13 17:43:00,
2013-06-13 13:53:00,78.0,60.0,29.74,NNE,19,1.0,2.0,54,0.00,,,0.22,,2013-06-13 17:53:00,
2013-06-13 14:02:00,78.0,60.0,29.74,NNE,19,1.0,2.0,54,0.00,,,0.22,,2013-06-13 18:02:00,
2013-06-13 14:11:00,77.0,60.0,29.74,WNW,292,2.0,3.0,56,0.00,,,0.22,,2013-06-13 18:11:00,
2013-06-13 14:22:00,78.0,61.0,29.75,NNE,22,0.0,6.0,56,0.00,,,0.22,,2013-06-13 18:22:00,
2013-06-13 14:33:00,78.0,61.0,29.75,NNE,22,0.0,6.0,56,0.00,,,0.22,,2013-06-13 18:33:00,
2013-06-13 14:43:00,78.0,60.0,29.75,NE,42,3.0,4.0,54,0.00,,,0.22,,2013-06-13 18:43:00,
2013-06-13 14:52:00,78.0,60.0,29.75,NE,42,3.0,4.0,54,0.00,,,0.22,,2013-06-13 18:52:00,
2013-06-13 15:01:00,78.0,60.0,29.75,NE,42,3.0,4.0,54,0.00,,,0.22,,2013-06-13 19:01:00,
2013-06-13 15:11:00,76.0,62.0,29.77,East,80,0.0,4.0,62,0.00,,,0.22,,2013-06-13 19:11:00,
2013-06-13 15:22:00,76.0,62.0,29.77,ENE,78,1.0,6.0,61,0.00,,,0.22,,2013-06-13 19:22:00,
2013-06-13 15:33:00,76.0,62.0,29.77,ENE,78,1.0,6.0,61,0.00,,,0.22,,2013-06-13 19:33:00,
2013-06-13 15:43:00,77.0,63.0,29.77,NE,34,3.0,3.0,62,0.00,,,0.22,,2013-06-13 19:43:00,
2013-06-13 15:53:00,77.0,62.0,29.77,NE,37,2.0,6.0,59,0.00,,,0.22,,2013-06-13 19:53:00,
2013-06-13 16:02:00,76.0,61.0,29.77,SE,128,0.0,3.0,60,0.00,,,0.22,,2013-06-13 20:02:00,
2013-06-13 16:11:00,75.0,61.0,29.78,ENE,69,0.0,4.0,61,0.00,,,0.22,,2013-06-13 20:11:00,
2013-06-13 16:22:00,75.0,61.0,29.78,ENE,69,0.0,4.0,61,0.00,,,0.22,,2013-06-13 20:22:00,
2013-06-13 16:33:00,76.0,62.0,29.78,ENE,65,2.0,5.0,61,0.00,,,0.22,,2013-06-13 20:33:00,
2013-06-13 16:44:00,76.0,61.0,29.79,SE,133,2.0,6.0,59,0.00,,,0.22,,2013-06-13 20:44:00,
2013-06-13 16:53:00,75.0,61.0,29.79,NE,56,0.0,1.0,61,0.00,,,0.22,,2013-06-13 20:53:00,
2013-06-13 17:02:00,77.0,62.0,29.80,NE,51,4.0,6.0,60,0.00,,,0.22,,2013-06-13 21:02:00,
2013-06-13 17:11:00,77.0,61.0,29.80,East,84,0.0,3.0,57,0.00,,,0.22,,2013-06-13 21:11:00,
2013-06-13 17:22:00,76.0,61.0,29.80,ENE,69,0.0,1.0,60,0.00,,,0.22,,2013-06-13 21:22:00,
2013-06-13 17:34:00,74.0,60.0,29.81,ENE,65,0.0,2.0,62,0.00,,,0.22,,2013-06-13 21:34:00,
2013-06-13 17:43:00,75.0,61.0,29.81,NNE,28,0.0,1.0,62,0.00,,,0.22,,2013-06-13 21:43:00,
2013-06-13 17:52:00,75.0,61.0,29.81,NNE,28,0.0,0.0,62,0.00,,,0.22,,2013-06-13 21:52:00,
2013-06-13 18:02:00,75.0,61.0,29.81,NNE,28,0.0,0.0,62,0.00,,,0.22,,2013-06-13 22:02:00,
2013-06-13 18:11:00,73.0,63.0,29.82,NE,55,0.0,3.0,70,0.00,,,0.22,,2013-06-13 22:11:00,
2013-06-13 18:22:00,73.0,63.0,29.82,NE,55,0.0,3.0,70,0.00,,,0.22,,2013-06-13 22:22:00,
2013-06-13 18:33:00,71.0,62.0,29.81,SE,128,0.0,2.0,72,0.00,,,0.22,,2013-06-13 22:33:00,
2013-06-13 18:43:00,71.0,62.0,29.82,East,86,0.0,0.0,72,0.00,,,0.22,,2013-06-13 22:43:00,
2013-06-13 18:52:00,71.0,63.0,29.82,East,86,0.0,0.0,76,0.00,,,0.22,,2013-06-13 22:52:00,
2013-06-13 19:02:00,70.0,64.0,29.82,East,86,0.0,0.0,81,0.00,,,0.22,,2013-06-13 23:02:00,
2013-06-13 19:11:00,70.0,63.0,29.82,NNW,343,0.0,0.0,79,0.00,,,0.22,,2013-06-13 23:11:00,
2013-06-13 19:22:00,71.0,63.0,29.82,WNW,295,1.0,2.0,77,0.00,,,0.22,,2013-06-13 23:22:00,
2013-06-13 19:32:00,71.0,63.0,29.82,WNW,295,0.0,1.0,76,0.00,,,0.22,,2013-06-13 23:32:00,
2013-06-13 19:43:00,71.0,63.0,29.83,WNW,290,0.0,0.0,77,0.00,,,0.22,,2013-06-13 23:43:00,
2013-06-13 19:52:00,71.0,63.0,29.83,NW,309,0.0,2.0,75,0.00,,,0.22,,2013-06-13 23:52:00,
2013-06-13 20:01:00,71.0,62.0,29.83,SSW,200,0.0,1.0,74,0.00,,,0.22,,2013-06-14 00:01:00,
2013-06-13 20:12:00,72.0,63.0,29.83,SSW,200,0.0,0.0,73,0.00,,,0.22,,2013-06-14 00:12:00,
2013-06-13 20:22:00,72.0,62.0,29.84,East,79,0.0,1.0,72,0.00,,,0.22,,2013-06-14 00:22:00,
2013-06-13 20:34:00,72.0,62.0,29.84,South,186,0.0,4.0,71,0.00,,,0.22,,2013-06-14 00:34:00,
2013-06-13 20:43:00,72.0,62.0,29.84,North,350,1.0,5.0,70,0.00,,,0.22,,2013-06-14 00:43:00,
2013-06-13 20:53:00,72.0,61.0,29.85,NE,49,0.0,3.0,68,0.00,,,0.21,,2013-06-14 00:53:00,
2013-06-13 21:01:00,71.0,60.0,29.86,NNE,22,0.0,3.0,69,0.00,,,0.21,,2013-06-14 01:01:00,
2013-06-13 21:11:00,71.0,60.0,29.86,ESE,113,1.0,3.0,69,0.00,,,0.21,,2013-06-14 01:11:00,
2013-06-13 21:22:00,70.0,59.0,29.86,SE,136,0.0,10.0,69,0.00,,,0.21,,2013-06-14 01:22:00,
2013-06-13 21:32:00,70.0,60.0,29.86,East,83,4.0,6.0,70,0.00,,,0.21,,2013-06-14 01:32:00,
2013-06-13 21:43:00,69.0,59.0,29.87,East,93,7.0,7.0,71,0.00,,,0.20,,2013-06-14 01:43:00,
2013-06-13 21:52:00,69.0,59.0,29.87,East,82,1.0,6.0,70,0.00,,,0.20,,2013-06-14 01:52:00,
2013-06-13 22:02:00,68.0,58.0,29.87,SE,138,1.0,3.0,71,0.00,,,0.19,,2013-06-14 02:02:00,
2013-06-13 22:11:00,68.0,59.0,29.88,NE,53,0.0,3.0,72,0.00,,,0.18,,2013-06-14 02:11:00,
2013-06-13 22:22:00,68.0,59.0,29.88,South,180,0.0,4.0,72,0.00,,,0.17,,2013-06-14 02:22:00,
2013-06-13 22:32:00,68.0,59.0,29.88,SE,138,0.0,3.0,72,0.00,,,0.16,,2013-06-14 02:32:00,
2013-06-13 22:43:00,68.0,59.0,29.88,SE,138,0.0,3.0,72,0.00,,,0.16,,2013-06-14 02:43:00,
2013-06-13 22:52:00,66.0,57.0,29.89,SE,144,0.0,4.0,74,0.00,,,0.14,,2013-06-14 02:52:00,
2013-06-13 23:02:00,66.0,58.0,29.89,NE,50,0.0,5.0,75,0.00,,,0.14,,2013-06-14 03:02:00,
2013-06-13 23:12:00,65.0,57.0,29.89,WNW,302,0.0,2.0,75,0.00,,,0.14,,2013-06-14 03:12:00,
2013-06-13 23:22:00,65.0,58.0,29.90,ENE,61,0.0,4.0,77,0.00,,,0.14,,2013-06-14 03:22:00,
2013-06-13 23:34:00,64.0,57.0,29.90,ENE,66,2.0,2.0,78,0.00,,,0.14,,2013-06-14 03:34:00,
2013-06-13 23:43:00,64.0,57.0,29.90,NE,40,1.0,3.0,79,0.00,,,0.14,,2013-06-14 03:43:00,
2013-06-13 23:53:00,63.0,56.0,29.91,ESE,111,0.0,1.0,79,0.00,,,0.14,,2013-06-14 03:53:00,